Regional Weather Roundup
Issued by NWS Green Bay, WI

Home | Current Version | Previous Version | Text Only | Print | Product List | Glossary On
Versions: 1 2 3 4 5 6 7 8 9 10 11 12 13 14 15 16 17 18 19 20 21 22 23 24 25 26 27 28 29 30 31 32 33 34 35 36 37 38 39 40 41 42 43 44 45 46 47 48 49 50
440
ASUS43 KGRB 211000
RWRGRB

NORTH-CENTRAL AND NORTHEAST WISCONSIN REGIONAL WEATHER ROUNDUP
NATIONAL WEATHER SERVICE GREEN BAY WI
400 AM CST TUE FEB 21 2017

WIZ005-009-010>012-018-019-211100-
NORTH CENTRAL WISCONSIN

CITY           SKY/WX    TMP DP  RH WIND       PRES   REMARKS
IRONWOOD       CLOUDY    40  37  89 W13       29.75R
MANITOWISH WTR NOT AVBL
ARBOR VITAE    NOT AVBL
EAGLE RIVER    NOT AVBL
LAND O LAKES   MOCLDY    45  43  92 W9G21     29.75R
RHINELANDER    MOCLDY    45  43  93 W12       29.77R
PHILLIPS       CLOUDY    40  40  97 W6        29.80R
ANTIGO         NOT AVBL
TOMAHAWK       NOT AVBL
MERRILL        NOT AVBL
$$

WIZ013-073-211100-
NORTHEAST WISCONSIN

CITY           SKY/WX    TMP DP  RH WIND       PRES   REMARKS
IRON MOUNTAIN  CLOUDY    48  46  93 W8        29.69R
MARINETTE      CLOUDY    49  47  93 SW8       29.75R FOG
OCONTO         CLOUDY    53  51  94 SW12      29.75R
$$

WIZ017-030-035>037-045-211100-
CENTRAL WISCONSIN

CITY           SKY/WX    TMP DP  RH WIND       PRES   REMARKS
MEDFORD        NOT AVBL
WAUSAU         CLOUDY    44  43  96 W13       29.81R
MOSINEE        CLOUDY    45  45 100 W13       29.84R
MARSHFIELD     CLOUDY    44  40  85 W14       29.84R
WISC RAPIDS    CLOUDY    48  46  93 W12       29.86R
STEVENS POINT  NOT AVBL
WAUPACA        NOT AVBL
SHAWANO        CLOUDY    54  52  94 W8        29.78R FOG
CLINTONVILLE   CLOUDY    52  48  87 W12       29.80R
WAUTOMA        CLOUDY    50  46  86 W13       29.84R
$$

WIZ038-039-048-051-211100-
FOX VALLEY

CITY           SKY/WX    TMP DP  RH WIND       PRES   REMARKS
NWS GREEN BAY  CLOUDY    52  52 100 SW12      29.77R
APPLETON       CLOUDY    52  52 100 SW13      29.78R
OSHKOSH        MOCLDY    54  52  93 SW6       29.80R
FOND DU LAC    CLOUDY    54  51  90 SW10      29.81S
$$

WIZ022-050-052-211100-
EAST CENTRAL WISCONSIN

CITY           SKY/WX    TMP DP  RH WIND       PRES   REMARKS
EPHRAIM        NOT AVBL
WASHINGTON ISL CLOUDY    40  38  93 S10G17    29.72F
STURGEON BAY   CLOUDY    44  43  96 S12       29.76R FOG
MANITOWOC      NOT AVBL
SHEBOYGAN      FOG       45  44  97 S7        29.81S VSB 1/4
$$

LMZ563-521-522-541>543-211100-
LAKESHORE

STATION/POSITION TIME  TEMP    WIND        PRES    VSBY  WAVE
                       AIR SEA DIR/SP/G                  HT/PER
                 (UTC) (F)     (DEG/KT/KT) (MB)    (MI)  (FT/S)
SHEBOYGAN LKSHOR 0900   40     180/ 21/ 23 1009.1F
KEWAUNEE LKSHORE 0930   38     200/ 12/ 16 1007.9F
NORTHPORT PIER   0940   43     170/  8/ 14 1007.1S
SISTER BAY LKSHO 0850   43     180/ 19/ 24   N/A
CHAMBERS ISLAND  0940   44     160/  9/ 18 1006.4S
MENOMINEE LKSHOR 0930   45     190/ 11/ 15 1005.9F
$$




USA.gov is the U.S. government's official web portal to all federal, state and local government web resources and services.